Aeroporto :
LOGIN :

Iscrizione | Disclaimer

   EN    FR    IT 

 










Sommario :    VFR   VFR Marginale   IFR   IFR Intensivo   IFR Molto Intensivo
Visibilità : 
Base nubi : 
>= 8 km
>= 3000ft
5 / 8 km
1000 / 3000 ft
1500m / 5 km
500 / 1000 ft
800 / 1500m
200 / 500 ft
< 800m
< 200 ft
Simboli :   Temporali  Nebbia  Neve Forte  Precipitazioni Forti  Vento > 20 kt
SIGMETs :   Varie  Temporali  Ghiacco  Turbolenza  Onda orograficha  Ceneri Vulcaniche






- Altitudine del aeroporto : 190 ft


LBPG - Graf Ignatievo Air Base

ULTIMO METAR :
  • 010300Z 27006KT 9999 BKN100 14/05 Q1008

METARs OBSOLETI :
  • 010200Z 27006KT 9999 BKN100 15/05 Q1008
  • 010100Z 27006KT 9999 BKN100 14/07 Q1009

TAF TAF LBPG
Valido dal 30 a 18 ore il 01 a 06 ore UTC


301700Z 3018/0106 28014KT 9999 SCT100
BECMG 3021/3023 VRB04KT
TEMPO 0103/0106 5000 BR SCT015 BY LBSA



MetMap, La meteo Aeronautica in un colpo d'occhio ! - Copyright ORBIFLY Dicembre 2007 - Disclaimer

ORBIFLY MET'MAP TEAM :

Programmazione e sviluppo : Alexandra Zaïnal
Concezione : Baudouin d'Aumeries
Aiuto per la programmazione : Marc-Olivier Méhu
Supporto tecnico e logistico : Manuel Goepfert
Aiuto per la traduzione : Arnaldo La Scala

Contatto : metmap@orbifly.com




FONTI E CREDITI :

   NOAA